DW8305 Weather Reports


time (UTC)temp
C
wind
direction
speed
KPH
gust
KPH
rain 1hr
cm
rain 24hr
cm
rain mn
cm
humidity
%
barometer
mb
20260906034316 11 0.0 1.6 0.00 0.00 0.00 89 1026.6
20260906033316 11 0.0 1.6 0.00 0.00 0.00 88 1026.5
20260906032336 11 270 3.2 6.4 0.00 0.00 0.00 88 1026.5
20260906031316 11 270 3.2 3.2 0.00 0.00 0.00 88 1026.7
20260906030317 11 270 6.4 9.7 0.00 0.00 0.00 88 1026.7
20260906025317 11 270 4.8 8.0 0.00 0.00 0.00 88 1026.6
20260906024317 11 293 1.6 3.2 0.00 0.00 0.00 88 1026.6
20260906023317 11 270 4.8 6.4 0.00 0.00 0.00 88 1026.5
20260906022317 12 248 3.2 6.4 0.00 0.00 0.00 87 1026.4
20260906021316 12 270 3.2 11.3 0.00 0.00 0.00 87 1026.4
20260906020337 12 248 3.2 6.4 0.00 0.00 0.00 86 1026.4
20260906015317 12 293 6.4 9.7 0.00 0.00 0.00 86 1026.2
20260906014316 12 270 8.0 11.3 0.00 0.00 0.00 86 1026.2
20260906013317 12 270 9.7 12.9 0.00 0.00 0.00 86 1026.1
20260906012316 12 270 4.8 9.7 0.00 0.00 0.00 85 1025.9
20260906011316 12 270 4.8 8.0 0.00 0.00 0.00 84 1025.9
20260906010317 13 270 4.8 6.4 0.00 0.00 0.00 84 1025.9
20260906005316 13 270 9.7 11.3 0.00 0.00 0.00 83 1025.8
20260906004317 13 270 3.2 4.8 0.00 0.00 0.00 83 1025.7
20260906003317 13 270 4.8 9.7 0.00 0.00 0.00 83 1025.6
20260906002316 13 270 6.4 12.9 0.00 0.00 0.00 82 1025.6
20260906001336 13 270 8.0 16.1 0.00 0.00 0.00 82 1025.5
20260906000318 13 270 6.4 11.3 0.00 0.00 0.00 82 1025.4
20260905235337 13 293 11.3 16.1 0.00 0.00 0.00 82 1025.4
20260905234317 13 270 6.4 8.0 0.00 0.00 0.00 81 1025.4
20260905233316 13 270 8.0 11.3 0.00 0.00 0.00 81 1025.3
20260905232317 13 270 8.0 12.9 0.00 0.00 0.00 81 1025.2
20260905231316 13 293 4.8 8.0 0.00 0.00 0.00 80 1025.1
20260905230356 13 293 8.0 16.1 0.00 0.00 0.00 80 1025.0
20260905225316 13 270 9.7 16.1 0.00 0.00 0.00 79 1024.9
20260905224316 14 270 8.0 11.3 0.00 0.00 0.00 79 1025.0
20260905223316 14 270 9.7 12.9 0.00 0.00 0.00 78 1024.9
20260905222317 14 270 8.0 11.3 0.00 0.00 0.00 77 1024.8
20260905221316 15 270 9.7 12.9 0.00 0.00 0.00 77 1024.8
20260905220357 15 293 8.0 12.9 0.00 0.00 0.00 76 1024.7
20260905215317 15 270 9.7 14.5 0.00 0.00 0.00 76 1024.7
20260905214317 15 270 9.7 14.5 0.00 0.00 0.00 75 1024.6
20260905213317 15 270 9.7 12.9 0.00 0.00 0.00 75 1024.5
20260905212317 15 270 4.8 8.0 0.00 0.00 0.00 74 1024.3
20260905211317 15 248 3.2 4.8 0.00 0.00 0.00 73 1024.2
20260905210317 15 270 6.4 12.9 0.00 0.00 0.00 72 1024.2
20260905205337 15 248 6.4 12.9 0.00 0.00 0.00 72 1024.1
20260905204317 15 270 4.8 8.0 0.00 0.00 0.00 72 1024.1
20260905203317 16 293 4.8 8.0 0.00 0.00 0.00 72 1024.0
20260905202317 16 293 4.8 8.0 0.00 0.00 0.00 72 1023.9
20260905201317 16 293 4.8 8.0 0.00 0.00 0.00 72 1023.9
20260905200317 16 293 4.8 11.3 0.00 0.00 0.00 72 1023.8
20260905195337 16 270 4.8 8.0 0.00 0.00 0.00 72 1023.8
20260905194317 16 293 3.2 6.4 0.00 0.00 0.00 72 1023.7
20260905193317 16 270 4.8 9.7 0.00 0.00 0.00 71 1023.7
20260905192317 16 270 4.8 9.7 0.00 0.00 0.00 70 1023.5
20260905191317 16 270 6.4 11.3 0.00 0.00 0.00 70 1023.3
20260905190357 17 293 4.8 6.4 0.00 0.00 0.00 68 1023.1
20260905185317 17 270 4.8 8.0 0.00 0.00 0.00 67 1022.9
20260905184317 17 270 11.3 17.7 0.00 0.00 0.00 68 1022.8
20260905183317 17 270 4.8 6.4 0.00 0.00 0.00 69 1022.7
20260905182317 17 270 8.0 14.5 0.00 0.00 0.00 69 1022.5
20260905181337 17 293 3.2 8.0 0.00 0.00 0.00 69 1022.2
20260905180317 17 270 6.4 9.7 0.00 0.00 0.00 68 1022.1
20260905175317 17 293 11.3 16.1 0.00 0.00 0.00 67 1022.0
20260905174317 17 270 6.4 8.0 0.00 0.00 0.00 68 1021.9
20260905173317 18 270 9.7 16.1 0.00 0.00 0.00 67 1021.7
20260905172317 18 270 9.7 16.1 0.00 0.00 0.00 67 1021.7
20260905171337 18 270 8.0 16.1 0.00 0.00 0.00 67 1021.5
20260905170317 18 270 9.7 17.7 0.00 0.00 0.00 67 1021.4
20260905165317 18 270 9.7 17.7 0.00 0.00 0.00 67 1021.2
20260905164317 18 293 12.9 24.1 0.00 0.00 0.00 66 1021.1
20260905163317 18 270 12.9 17.7 0.00 0.00 0.00 66 1020.9
20260905162317 18 270 14.5 25.7 0.00 0.00 0.00 65 1020.8
20260905161317 18 293 14.5 25.7 0.00 0.00 0.00 63 1020.6
20260905160317 18 293 14.5 24.1 0.00 0.00 0.00 62 1020.6
20260905155317 18 270 20.9 30.6 0.00 0.10 0.00 66 1020.6
20260905154317 19 293 11.3 16.1 0.00 0.10 0.00 65 1020.3
20260905153317 19 270 17.7 25.7 0.00 0.10 0.00 66 1020.2
20260905152317 18 270 11.3 24.1 0.00 0.10 0.00 68 1020.1
20260905151317 18 270 8.0 14.5 0.00 0.10 0.00 68 1020.1
20260905150317 18 293 9.7 14.5 0.00 0.10 0.00 68 1019.9
20260905145317 19 293 8.0 14.5 0.00 0.15 0.00 67 1019.8
20260905144317 20 0 9.7 14.5 0.00 0.15 0.00 63 1019.5
20260905143317 20 270 8.0 17.7 0.00 0.15 0.00 59 1019.5
20260905142317 20 270 16.1 32.2 0.00 0.15 0.00 57 1019.2
20260905141317 20 270 29.0 40.2 0.00 0.15 0.00 58 1019.2
20260905140317 20 270 11.3 19.3 0.00 0.15 0.00 56 1019.0
20260905135317 20 293 22.5 41.8 0.00 0.23 0.00 58 1018.8
20260905134317 20 293 12.9 24.1 0.00 0.23 0.00 56 1018.7
20260905133317 21 270 16.1 29.0 0.00 0.23 0.00 53 1018.7
20260905132317 21 270 20.9 37.0 0.00 0.23 0.00 55 1018.6
20260905131317 21 270 12.9 25.7 0.00 0.23 0.00 58 1018.5
20260905130317 20 293 17.7 33.8 0.00 0.23 0.00 60 1018.3
20260905125317 20 270 9.7 24.1 0.00 0.38 0.00 64 1018.1
20260905124317 20 270 16.1 22.5 0.00 0.38 0.00 64 1018.0
20260905123337 20 270 19.3 32.2 0.00 0.38 0.00 65 1018.1
20260905122317 20 270 20.9 32.2 0.00 0.38 0.00 66 1017.8
20260905121317 20 270 19.3 33.8 0.00 0.38 0.00 66 1017.9
20260905120337 20 270 17.7 29.0 0.00 0.38 0.00 67 1017.9
20260905115337 19 248 11.3 32.2 0.00 0.38 0.00 67 1018.1
20260905114317 19 270 12.9 19.3 0.00 0.38 0.00 69 1018.2
20260905113317 20 270 19.3 37.0 0.00 0.38 0.00 65 1018.0
20260905112317 20 270 16.1 22.5 0.00 0.38 0.00 67 1017.9
20260905111317 19 248 17.7 33.8 0.00 0.38 0.00 66 1017.8
20260905110317 19 270 24.1 35.4 0.00 0.38 0.00 68 1017.7
20260905105317 18 270 14.5 20.9 0.00 0.41 0.00 75 1017.8
20260905104317 18 293 9.7 12.9 0.00 0.41 0.00 74 1017.7
20260905103317 18 270 9.7 17.7 0.00 0.41 0.00 76 1017.7
20260905102337 17 270 11.3 17.7 0.00 0.41 0.00 79 1017.8
20260905101317 17 270 9.7 14.5 0.00 0.41 0.00 82 1018.0
20260905100317 17 270 14.5 20.9 0.00 0.41 0.00 79 1018.0
20260905095357 18 293 19.3 29.0 0.00 0.41 0.00 74 1017.9
20260905094317 18 270 17.7 29.0 0.00 0.41 0.00 72 1017.8
20260905093357 18 270 16.1 22.5 0.00 0.41 0.00 73 1017.7
20260905092317 18 270 17.7 25.7 0.00 0.41 0.00 73 1017.6
20260905091357 18 270 20.9 33.8 0.00 0.41 0.00 74 1017.5
20260905090337 18 248 11.3 25.7 0.00 0.41 0.00 75 1017.5
20260905085317 18 270 14.5 22.5 0.00 0.41 0.00 75 1017.4
20260905084337 17 293 22.5 35.4 0.00 0.41 0.00 75 1017.5
20260905083317 17 270 17.7 25.7 0.00 0.41 0.00 75 1017.3
20260905082317 18 270 12.9 19.3 0.00 0.41 0.00 77 1017.1
20260905081317 17 270 6.4 9.7 0.00 0.41 0.00 79 1017.0
20260905080337 17 270 17.7 24.1 0.00 0.41 0.00 79 1017.0
20260905075317 17 225 9.7 14.5 0.00 0.41 0.00 81 1016.9
20260905074317 16 270 8.0 12.9 0.00 0.41 0.00 81 1016.8
20260905073337 16 270 11.3 16.1 0.00 0.41 0.00 81 1016.8
20260905072337 16 270 9.7 20.9 0.00 0.41 0.00 82 1016.7
20260905071317 16 270 11.3 19.3 0.00 0.41 0.00 82 1016.6
20260905070317 16 270 12.9 17.7 0.00 0.41 0.00 82 1016.6
20260905065317 16 248 11.3 27.4 0.00 0.41 0.00 83 1016.4
20260905064428 16 270 9.7 32.2 0.00 0.41 0.00 83 1016.3
20260905064217 16 270 16.1 30.6 0.00 0.41 0.00 83 1016.4
20260905063217 16 270 9.7 14.5 0.00 0.41 0.00 84 1016.3
20260905062217 15 270 8.0 11.3 0.00 0.41 0.00 85 1016.1
20260905061217 15 270 6.4 9.7 0.00 0.41 0.00 86 1015.9
20260905060217 15 248 9.7 14.5 0.00 0.41 0.00 87 1016.1
20260905055217 15 248 6.4 11.3 0.00 0.41 0.00 88 1015.9
20260905054240 15 270 3.2 8.0 0.00 0.41 0.00 88 1015.9
20260905053217 14 270 8.0 12.9 0.00 0.41 0.00 89 1015.8
20260905052217 14 270 6.4 9.7 0.00 0.41 0.00 90 1015.8
20260905051217 14 248 6.4 11.3 0.00 0.41 0.00 90 1015.7
20260905050217 14 270 8.0 14.5 0.00 0.41 0.00 90 1015.6
20260905045217 14 248 6.4 9.7 0.00 0.41 0.00 90 1015.4
20260905044217 14 270 4.8 8.0 0.00 0.41 0.00 90 1015.4
20260905043217 14 270 8.0 11.3 0.00 0.41 0.00 90 1015.4
20260905042237 14 270 4.8 9.7 0.00 0.41 0.00 90 1015.4
20260905041217 14 270 6.4 9.7 0.00 0.41 0.00 91 1015.3
20260905040217 14 270 9.7 14.5 0.00 0.41 0.00 90 1015.4
20260905035217 14 270 6.4 11.3 0.00 0.41 0.00 89 1015.4